Regional Weather Roundup
Issued by NWS

Home | Current Version | Previous Version | Text Only | Print | Product List | Glossary On
Versions: 1 2 3 4 5 6 7 8 9 10 11 12 13 14 15 16 17 18 19 20 21 22 23 24 25 26 27 28 29 30 31 32 33 34 35 36 37 38 39 40 41 42 43 44 45 46 47 48 49 50
000
ASUS43 KOAX 311902
RWRNE

WEATHER ROUNDUP FOR NEBRASKA
NATIONAL WEATHER SERVICE OMAHA NE
200 PM CDT THU JUL 31 2014

NOTES: SATELLITE DATA IS BEING USED TO AUGMENT CLOUD COVER ABOVE
       12000 FEET.
       "FAIR" INDICATES FEW OR NO CLOUDS BELOW 12,000 FEET WITH NO
       SIGNIFICANT WEATHER AND/OR OBSTRUCTIONS TO VISIBILITY.

  * THESE STATIONS DO NOT REPORT WEATHER SUCH AS RAIN...SNOW OR FOG.

NEZ001>004-019>022-054>056-312000-
NEBRASKA PANHANDLE

CITY           SKY/WX    TMP DP  RH WIND       PRES   REMARKS
SCOTTSBLUFF    SUNNY     84  51  31 VRB6      30.20F
ALLIANCE       SUNNY     84  41  21 N13       30.19F
CHADRON        SUNNY     84  47  27 VRB5      30.16F
KIMBALL        MOSUNNY   78  45  31 NW7       30.25S
SIDNEY         SUNNY     82  43  25 CALM      30.22F
$$

NEZ057>060-069>072-079>082-312000-
SOUTHWEST NEBRASKA

CITY           SKY/WX    TMP DP  RH WIND       PRES   REMARKS
NORTH PLATTE   MOSUNNY   86  55  34 W14       30.10F
IMPERIAL       SUNNY     82  52  35 NW7       30.17F
LEXINGTON      MOSUNNY   87  55  33 NW9       30.08F
MCCOOK         SUNNY     86  50  28 SW10      30.13F
OGALLALA       PTSUNNY   82  49  30 NW5       30.15S
$$

NEZ005>010-023>029-035>040-094-312000-
NORTH CENTRAL NEBRASKA

CITY           SKY/WX    TMP DP  RH WIND       PRES   REMARKS
VALENTINE      SUNNY     86  52  30 NE9       30.11F
AINSWORTH      SUNNY     82  52  35 N12G20    30.10S
BROKEN BOW     SUNNY     87  55  33 W15       30.07F
O`NEILL        PTSUNNY   81  64  55 CALM      30.05F
ORD            MOSUNNY   88  51  28 N8        30.03F
THEDFORD       SUNNY     86  51  30 N12G21    30.12F
$$

NEZ041-046>049-061>064-073>077-083>087-312000-
SOUTH CENTRAL NEBRASKA

CITY           SKY/WX    TMP DP  RH WIND       PRES   REMARKS
GRAND ISLAND   PTSUNNY   88  60  38 SW12      30.06F
AURORA         SUNNY     84  61  44 SW13      30.06F
HASTINGS       SUNNY     86  54  33 SW8       30.07F
HEBRON         SUNNY     83  50  31 S3        30.08F
HOLDREGE       SUNNY     85  54  33 W12G17    30.09F
KEARNEY *      SUNNY     88  57  35 SW18G24   30.07F
YORK           SUNNY     82  63  51 S14       30.07F
$$

NEZ011>018-030>034-042>045-312000-
NORTHEAST NEBRASKA

CITY           SKY/WX    TMP DP  RH WIND       PRES   REMARKS
NORFOLK        PTSUNNY   82  59  45 S12       30.05F
ALBION         MOSUNNY   83  60  45 SW6       30.03F
BLAIR          MOSUNNY   79  57  46 SE5       30.08F
COLUMBUS *     MOSUNNY   82  61  47 SE12      30.05F
TEKAMAH        MOSUNNY   81  57  43 S6        30.06F
WAYNE          PTSUNNY   83  61  47 SE7       30.07F
$$

NEZ050>053-065>068-078-088>093-312000-
SOUTHEAST NEBRASKA

CITY           SKY/WX    TMP DP  RH WIND       PRES   REMARKS
LINCOLN        SUNNY     85  55  35 SW12      30.07F
OMAHA EPPLEY   PTSUNNY   81  55  40 S8        30.08S
BEATRICE       SUNNY     82  56  41 SE3       30.08F
FALLS CITY     MOSUNNY   83  55  38 CALM      30.08F
NEBRASKA CITY  SUNNY     82  52  35 S7        30.08F
PLATTSMOUTH    MOSUNNY   83  52  33 SE3       30.08F
$$

NEZ044-045-051>053-067-312000-
OMAHA AREA

CITY           SKY/WX    TMP DP  RH WIND       PRES   REMARKS
OMAHA EPPLEY   PTSUNNY   81  55  40 S8        30.08S
BLAIR          MOSUNNY   79  57  46 SE5       30.08F
MILLARD        MOSUNNY   82  57  42 SE5       30.06F
OFFUTT AFB     MOSUNNY   80  57  45 NE1       30.07F
PLATTSMOUTH    MOSUNNY   83  52  33 SE3       30.08F
WAHOO          FAIR      85  54  34 S5        30.06F
$$



USA.gov is the U.S. government's official web portal to all federal, state and local government web resources and services.